Location: Newark
(53.2000°N, 6.1000°W)
Time: 22:56:56
(UTC+00:00)

ISS - Pass Details

Date: 08 October 2020
Orbit: 417 x 420 km, 51.6° (Epoch: 29 October)

Event Time Altitude Azimuth Distance (km) Brightness Sun altitude
Rises 18:19:25 0° 276° (W) 2,369 2.4 -6.2°
Reaches altitude 10° 18:22:36 10° 243° (WSW) 1,501 0.3 -6.6°
Maximum altitude 18:23:55 12° 220° (SW) 1,392 -0.5 -6.8°
Drops below altitude 10° 18:25:13 10° 197° (SSW) 1,498 -0.7 -7.0°
Sets 18:28:23 0° 164° (SSE) 2,357 -0.1 -7.5°
